FW7746 Weather Reports


time (UTC)temp
C
wind
direction
speed
KPH
gust
KPH
rain 1hr
cm
rain 24hr
cm
rain mn
cm
humidity
%
barometer
mb
20260510165603 17 264 0.0 0.0 0.00 0.00 0.00 44 1013.1
20260510165103 17 264 0.0 0.0 0.00 0.00 0.00 45 1013.1
20260510164103 17 305 0.0 4.8 0.00 0.00 0.00 46 1013.1
20260510163604 16 215 0.0 0.0 0.00 0.00 0.00 49 1013.2
20260510163103 16 207 0.0 0.0 0.00 0.00 0.00 48 1013.3
20260510162603 16 207 0.0 0.0 0.00 0.00 0.00 49 1013.3
20260510162103 15 207 0.0 0.0 0.00 0.00 0.00 50 1013.4
20260510161603 15 207 0.0 0.0 0.00 0.00 0.00 51 1013.3
20260510155605 14 207 0.0 3.2 0.00 0.00 0.00 52 1013.4
20260510155103 14 195 0.0 3.2 0.00 0.00 0.00 53 1013.3
20260510154604 13 194 0.0 0.0 0.00 0.00 0.00 53 1013.5
20260510154103 13 194 0.0 0.0 0.00 0.00 0.00 53 1013.5
20260510153604 13 194 0.0 3.2 0.00 0.00 0.00 53 1013.4
20260510153103 13 191 0.0 0.0 0.00 0.00 0.00 53 1013.5
20260510152603 13 191 0.0 1.6 0.00 0.00 0.00 53 1013.5
20260510152104 13 190 0.0 0.0 0.00 0.00 0.00 53 1013.5
20260510151603 13 190 0.0 0.0 0.00 0.00 0.00 53 1013.6
20260510150603 13 175 0.0 0.0 0.00 0.00 0.00 54 1013.7
20260510150104 12 175 0.0 0.0 0.00 0.00 0.00 54 1013.8
20260510145605 12 174 0.0 0.0 0.00 0.00 0.00 55 1013.8
20260510145103 12 176 0.0 0.0 0.00 0.00 0.00 57 1013.9
20260510144604 11 176 0.0 1.6 0.00 0.00 0.00 58 1013.8
20260510144103 10 198 0.0 4.8 0.00 0.00 0.00 60 1013.8
20260510143603 10 83 0.0 3.2 0.00 0.00 0.00 60 1013.9
20260510143104 10 72 0.0 0.0 0.00 0.00 0.00 61 1013.8
20260510142603 9 250 0.0 0.0 0.00 0.00 0.00 62 1013.7
20260510142103 9 250 0.0 1.6 0.00 0.00 0.00 60 1013.8
20260510141603 9 243 0.0 3.2 0.00 0.00 0.00 60 1013.9
20260510141103 9 204 0.0 4.8 0.00 0.00 0.00 60 1013.9
20260510140603 8 216 0.0 4.8 0.00 0.00 0.00 59 1013.8
20260510135603 8 222 0.0 4.8 0.00 0.00 0.00 59 1013.7
20260510135103 8 213 0.0 3.2 0.00 0.00 0.00 60 1013.6
20260510134604 8 188 0.0 4.8 0.00 0.00 0.00 59 1013.7
20260510134104 8 219 0.0 3.2 0.00 0.00 0.00 59 1013.5
20260510133604 8 230 0.0 4.8 0.00 0.00 0.00 60 1013.3
20260510133103 8 224 0.0 3.2 0.00 0.00 0.00 60 1013.3
20260510132604 8 227 0.0 4.8 0.00 0.00 0.00 59 1013.3
20260510132104 8 216 0.0 8.0 0.00 0.00 0.00 59 1013.4
20260510131603 7 232 0.0 4.8 0.00 0.00 0.00 59 1013.4
20260510131104 7 224 0.0 4.8 0.00 0.00 0.00 59 1013.4
20260510130603 7 212 0.0 1.6 0.00 0.00 0.00 59 1013.4
20260510130104 7 211 0.0 0.0 0.00 0.00 0.00 59 1013.2
20260510125103 7 194 0.0 1.6 0.00 0.00 0.00 59 1013.3
20260510124603 7 184 0.0 4.8 0.00 0.00 0.00 59 1013.2
20260510124104 7 227 0.0 4.8 0.00 0.00 0.00 59 1013.2
20260510123603 7 215 0.0 4.8 0.00 0.00 0.00 59 1013.2
20260510123104 7 211 0.0 0.0 0.00 0.00 0.00 59 1013.2
20260510122103 8 213 0.0 0.0 0.00 0.00 0.00 59 1013.2
20260510121603 8 213 0.0 0.0 0.00 0.00 0.00 58 1013.3
20260510121103 8 213 0.0 0.0 0.00 0.00 0.00 58 1013.2
20260510120603 8 213 0.0 0.0 0.00 0.00 0.00 57 1013.2
20260510120104 8 213 0.0 1.6 0.00 0.00 0.00 57 1013.2
20260510115604 8 200 0.0 0.0 0.00 0.00 0.00 57 1013.3
20260510115103 8 200 0.0 0.0 0.00 0.00 0.00 56 1013.3
20260510114603 8 200 0.0 0.0 0.00 0.00 0.00 56 1013.3
20260510113604 8 207 0.0 0.0 0.00 0.00 0.00 56 1013.4
20260510113104 8 208 0.0 3.2 0.00 0.00 0.00 55 1013.4
20260510112603 8 172 0.0 0.0 0.00 0.00 0.00 55 1013.4
20260510112103 8 172 0.0 1.6 0.00 0.00 0.00 55 1013.4
20260510111604 8 216 0.0 1.6 0.00 0.00 0.00 55 1013.5
20260510110604 8 215 0.0 0.0 0.00 0.00 0.00 55 1013.5
20260510105604 8 251 0.0 0.0 0.00 0.00 0.00 55 1013.6
20260510104604 8 286 0.0 0.0 0.00 0.00 0.00 54 1013.7
20260510103604 8 321 0.0 0.0 0.00 0.00 0.00 53 1013.8
20260510102604 8 321 0.0 0.0 0.00 0.00 0.00 53 1013.8
20260510102103 8 321 0.0 0.0 0.00 0.00 0.00 52 1014.0
20260510101604 8 322 0.0 0.0 0.00 0.00 0.00 52 1014.1
20260510101103 8 322 0.0 0.0 0.00 0.00 0.00 52 1014.0
20260510100603 8 322 0.0 0.0 0.00 0.00 0.00 52 1014.0
20260510100104 8 322 0.0 0.0 0.00 0.00 0.00 51 1013.9
20260510095104 8 322 0.0 0.0 0.00 0.00 0.00 51 1014.1
20260510094603 8 322 0.0 0.0 0.00 0.00 0.00 51 1014.1
20260510094103 8 322 0.0 0.0 0.00 0.00 0.00 50 1014.0
20260510093604 8 322 0.0 0.0 0.00 0.00 0.00 50 1014.0
20260510093103 9 322 0.0 0.0 0.00 0.00 0.00 50 1014.0
20260510092604 9 322 0.0 0.0 0.00 0.00 0.00 50 1014.1
20260510092103 9 322 0.0 0.0 0.00 0.00 0.00 50 1014.1
20260510091604 9 322 0.0 0.0 0.00 0.00 0.00 50 1014.1
20260510090604 9 322 0.0 0.0 0.00 0.00 0.00 49 1014.1
20260510090103 9 322 0.0 0.0 0.00 0.00 0.00 50 1014.2
20260510085604 9 322 0.0 0.0 0.00 0.00 0.00 50 1014.1
20260510085103 9 322 0.0 0.0 0.00 0.00 0.00 50 1014.1
20260510084604 9 322 0.0 0.0 0.00 0.00 0.00 50 1014.1
20260510084103 9 322 0.0 0.0 0.00 0.00 0.00 49 1014.2
20260510083604 9 322 0.0 0.0 0.00 0.00 0.00 49 1014.3
20260510083103 10 322 0.0 0.0 0.00 0.00 0.00 48 1014.3
20260510082603 10 322 0.0 0.0 0.00 0.00 0.00 47 1014.2
20260510082104 10 322 0.0 0.0 0.00 0.00 0.00 48 1014.3
20260510081603 10 322 0.0 0.0 0.00 0.00 0.00 47 1014.3
20260510081103 10 322 0.0 0.0 0.00 0.00 0.00 46 1014.3
20260510080604 10 322 0.0 0.0 0.00 0.00 0.00 46 1014.4
20260510080104 10 322 0.0 0.0 0.00 0.00 0.00 45 1014.3
20260510075603 10 322 0.0 0.0 0.00 0.00 0.00 45 1014.2
20260510075103 11 322 0.0 0.0 0.00 0.00 0.00 44 1014.2
20260510074603 11 322 0.0 0.0 0.00 0.00 0.00 44 1014.3
20260510074103 11 322 0.0 0.0 0.00 0.00 0.00 43 1014.3
20260510072604 11 322 0.0 0.0 0.00 0.00 0.00 42 1014.4
20260510072104 11 322 0.0 0.0 0.00 0.00 0.00 43 1014.4
20260510071603 12 322 0.0 0.0 0.00 0.00 0.00 44 1014.5
20260510071104 12 322 0.0 0.0 0.00 0.00 0.00 43 1014.2
20260510070604 12 322 0.0 0.0 0.00 0.00 0.00 42 1014.3
20260510070104 12 322 0.0 0.0 0.00 0.00 0.00 42 1014.3
20260510065603 12 322 0.0 0.0 0.00 0.00 0.00 43 1014.3
20260510065103 12 322 0.0 0.0 0.00 0.00 0.00 42 1014.3
20260510064604 13 322 0.0 0.0 0.00 0.00 0.00 42 1014.4
20260510064103 13 322 0.0 0.0 0.00 0.00 0.00 41 1014.4
20260510063604 13 322 0.0 0.0 0.00 0.00 0.00 40 1014.5
20260510063103 13 322 0.0 0.0 0.00 0.00 0.00 40 1014.5
20260510062604 13 322 0.0 0.0 0.00 0.00 0.00 39 1014.5
20260510062103 14 322 0.0 0.0 0.00 0.00 0.00 38 1014.6
20260510061604 14 322 0.0 0.0 0.00 0.00 0.00 37 1014.6
20260510060604 15 322 0.0 0.0 0.00 0.00 0.00 35 1014.6
20260510055604 15 322 0.0 0.0 0.00 0.00 0.00 34 1014.7
20260510055103 15 322 0.0 0.0 0.00 0.00 0.00 33 1014.5
20260510054604 15 322 0.0 0.0 0.00 0.00 0.00 32 1014.5
20260510053104 16 322 0.0 0.0 0.00 0.00 0.00 32 1014.5
20260510052603 16 322 0.0 0.0 0.00 0.00 0.00 31 1014.5
20260510052104 16 322 0.0 0.0 0.00 0.00 0.00 31 1014.5
20260510051603 16 322 0.0 0.0 0.00 0.00 0.00 31 1014.5
20260510051104 17 322 0.0 0.0 0.00 0.00 0.00 30 1014.6
20260510050603 17 322 0.0 0.0 0.00 0.00 0.00 29 1014.6
20260510050103 17 322 0.0 0.0 0.00 0.00 0.00 29 1014.6
20260510045604 17 322 0.0 0.0 0.00 0.00 0.00 29 1014.5
20260510045103 17 322 0.0 0.0 0.00 0.00 0.00 29 1014.6
20260510044605 18 322 0.0 0.0 0.00 0.00 0.00 28 1014.5
20260510044104 18 322 0.0 0.0 0.00 0.00 0.00 27 1014.4
20260510043104 18 322 0.0 0.0 0.00 0.00 0.00 26 1014.4
20260510042604 18 322 0.0 0.0 0.00 0.00 0.00 26 1014.3
20260510042103 18 322 0.0 0.0 0.00 0.00 0.00 26 1014.2
20260510041604 19 322 0.0 0.0 0.00 0.00 0.00 27 1014.2
20260510040604 20 322 0.0 0.0 0.00 0.00 0.00 25 1014.1
20260510040105 20 322 0.0 0.0 0.00 0.00 0.00 25 1014.0
20260510034604 21 322 0.0 0.0 0.00 0.00 0.00 23 1013.8
20260510034104 21 322 0.0 0.0 0.00 0.00 0.00 23 1013.7
20260510032604 21 322 0.0 0.0 0.00 0.00 0.00 21 1013.7
20260510032103 21 322 0.0 0.0 0.00 0.00 0.00 21 1013.8
20260510031604 22 322 0.0 0.0 0.00 0.00 0.00 21 1013.6
20260510031105 22 322 0.0 0.0 0.00 0.00 0.00 20 1013.6
20260510030603 22 322 0.0 0.0 0.00 0.00 0.00 20 1013.5
20260510025104 22 322 0.0 0.0 0.00 0.00 0.00 19 1013.5
20260510024604 23 322 0.0 1.6 0.00 0.00 0.00 19 1013.6
20260510024103 23 320 0.0 0.0 0.00 0.00 0.00 19 1013.6
20260510023603 23 315 0.0 4.8 0.00 0.00 0.00 19 1013.6
20260510023105 23 328 1.6 8.0 0.00 0.00 0.00 18 1013.6
20260510022604 23 326 0.0 4.8 0.00 0.00 0.00 18 1013.5
20260510021604 23 327 1.6 4.8 0.00 0.00 0.00 16 1013.5
20260510021104 24 329 1.6 4.8 0.00 0.00 0.00 16 1013.4
20260510020603 24 319 3.2 12.9 0.00 0.00 0.00 16 1013.4
20260510020104 24 326 3.2 12.9 0.00 0.00 0.00 16 1013.4
20260510015604 25 327 1.6 9.7 0.00 0.00 0.00 16 1013.4
20260510015103 25 329 1.6 8.0 0.00 0.00 0.00 16 1013.4
20260510014604 25 330 3.2 12.9 0.00 0.00 0.00 16 1013.4
20260510014104 25 322 0.0 4.8 0.00 0.00 0.00 16 1013.5
20260510013603 25 324 3.2 8.0 0.00 0.00 0.00 16 1013.5
20260510012603 25 331 0.0 12.9 0.00 0.00 0.00 16 1013.6
20260510012104 25 326 3.2 14.5 0.00 0.00 0.00 15 1013.6
20260510011603 26 328 1.6 8.0 0.00 0.00 0.00 14 1013.5
20260510011104 26 302 0.0 9.7 0.00 0.00 0.00 15 1013.5
20260510010104 26 327 3.2 14.5 0.00 0.00 0.00 15 1013.5
20260510005604 26 329 1.6 8.0 0.00 0.00 0.00 15 1013.5
20260510005103 26 338 1.6 9.7 0.00 0.00 0.00 15 1013.4
20260510004104 26 311 0.0 8.0 0.00 0.00 0.00 15 1013.4
20260510003603 26 311 1.6 12.9 0.00 0.00 0.00 15 1013.3
20260510002604 26 318 1.6 19.3 0.00 0.00 0.00 15 1013.4
20260510002104 26 320 3.2 19.3 0.00 0.00 0.00 15 1013.5
20260510001604 26 325 4.8 11.3 0.00 0.00 0.00 14 1013.5
20260510000604 27 325 1.6 3.2 0.00 0.00 0.00 15 1013.6
20260510000103 27 325 3.2 14.5 0.00 0.00 0.00 14 1013.7
20260509235604 27 304 0.0 1.6 0.00 0.00 0.00 14 1013.7
20260509235103 27 350 1.6 4.8 0.00 0.00 0.00 14 1013.7
20260509234604 27 86 0.0 0.0 0.00 0.00 0.00 15 1013.8
20260509234104 27 71 0.0 3.2 0.00 0.00 0.00 16 1013.7
20260509233603 27 343 3.2 9.7 0.00 0.00 0.00 16 1013.9
20260509233104 27 335 1.6 4.8 0.00 0.00 0.00 15 1014.0
20260509232604 27 323 0.0 3.2 0.00 0.00 0.00 16 1014.0
20260509232104 27 324 1.6 9.7 0.00 0.00 0.00 15 1014.1
20260509231604 27 330 0.0 1.6 0.00 0.00 0.00 16 1014.3
20260509231103 27 313 0.0 3.2 0.00 0.00 0.00 16 1014.6
20260509230604 27 197 1.6 4.8 0.00 0.00 0.00 16 1014.5
20260509230104 27 132 0.0 4.8 0.00 0.00 0.00 15 1014.7
20260509225604 28 180 0.0 3.2 0.00 0.00 0.00 15 1014.7
20260509225104 28 85 1.6 4.8 0.00 0.00 0.00 15 1014.7
20260509224604 27 91 0.0 1.6 0.00 0.00 0.00 16 1014.9
20260509223604 27 108 0.0 4.8 0.00 0.00 0.00 15 1015.1
20260509223103 27 71 0.0 4.8 0.00 0.00 0.00 16 1015.2
20260509222604 27 152 0.0 0.0 0.00 0.00 0.00 15 1015.3
20260509221604 27 149 0.0 3.2 0.00 0.00 0.00 15 1015.4
20260509221103 28 25 0.0 3.2 0.00 0.00 0.00 16 1015.3
20260509220604 28 162 0.0 1.6 0.00 0.00 0.00 16 1015.5
20260509215603 28 213 0.0 3.2 0.00 0.00 0.00 16 1015.7
20260509214604 27 213 0.0 0.0 0.00 0.00 0.00 15 1015.8
20260509214104 27 206 0.0 3.2 0.00 0.00 0.00 16 1016.0
20260509213603 27 324 0.0 0.0 0.00 0.00 0.00 17 1015.9
20260509213104 26 325 0.0 0.0 0.00 0.00 0.00 17 1016.0
20260509212604 26 325 0.0 4.8 0.00 0.00 0.00 18 1015.9
20260509212104 26 77 1.6 4.8 0.00 0.00 0.00 18 1016.0
20260509211604 26 328 1.6 8.0 0.00 0.00 0.00 17 1016.1
20260509211103 26 348 0.0 3.2 0.00 0.00 0.00 19 1016.1
20260509210104 25 332 0.0 4.8 0.00 0.00 0.00 18 1016.3
20260509205604 25 314 1.6 12.9 0.00 0.00 0.00 18 1016.3
20260509205104 25 1 0.0 4.8 0.00 0.00 0.00 19 1016.4
20260509204604 25 93 0.0 1.6 0.00 0.00 0.00 19 1016.4
20260509204103 25 346 0.0 4.8 0.00 0.00 0.00 19 1016.6
20260509203604 25 323 1.6 4.8 0.00 0.00 0.00 19 1016.6
20260509203104 25 313 1.6 4.8 0.00 0.00 0.00 18 1016.6
20260509202603 26 316 1.6 4.8 0.00 0.00 0.00 19 1016.7
20260509202104 26 198 0.0 3.2 0.00 0.00 0.00 19 1016.8
20260509201104 25 1 0.0 1.6 0.00 0.00 0.00 20 1016.8
20260509200604 25 348 0.0 4.8 0.00 0.00 0.00 19 1016.9
20260509200104 25 18 0.0 3.2 0.00 0.00 0.00 21 1017.0
20260509195104 24 63 1.6 4.8 0.00 0.00 0.00 20 1017.1
20260509194603 24 338 1.6 4.8 0.00 0.00 0.00 21 1017.2
20260509194103 24 68 0.0 4.8 0.00 0.00 0.00 19 1017.3
20260509193604 24 77 1.6 4.8 0.00 0.00 0.00 20 1017.4
20260509193104 24 72 1.6 4.8 0.00 0.00 0.00 20 1017.4
20260509192104 23 3 0.0 4.8 0.00 0.00 0.00 22 1017.6
20260509191103 23 233 0.0 4.8 0.00 0.00 0.00 22 1017.6
20260509190104 23 43 0.0 3.2 0.00 0.00 0.00 23 1017.9
20260509185104 22 98 0.0 3.2 0.00 0.00 0.00 24 1018.0
20260509184604 22 98 0.0 0.0 0.00 0.00 0.00 23 1018.1
20260509184104 22 105 1.6 9.7 0.00 0.00 0.00 24 1018.2
20260509183604 22 168 0.0 0.0 0.00 0.00 0.00 26 1018.1
20260509183104 22 163 0.0 0.0 0.00 0.00 0.00 25 1018.2
20260509182604 21 161 1.6 8.0 0.00 0.00 0.00 26 1018.2
20260509182103 21 141 0.0 3.2 0.00 0.00 0.00 27 1018.2
20260509180604 21 82 0.0 3.2 0.00 0.00 0.00 29 1018.3
20260509180104 20 67 0.0 3.2 0.00 0.00 0.00 30 1018.4
20260509175603 20 310 1.6 4.8 0.00 0.00 0.00 31 1018.5
20260509175104 20 105 0.0 1.6 0.00 0.00 0.00 32 1018.6
20260509174603 20 106 0.0 3.2 0.00 0.00 0.00 31 1018.5
20260509174104 20 121 0.0 3.2 0.00 0.00 0.00 33 1018.5
20260509173604 20 121 1.6 4.8 0.00 0.00 0.00 33 1018.4
20260509173103 19 130 0.0 3.2 0.00 0.00 0.00 34 1018.6
20260509172604 19 110 1.6 3.2 0.00 0.00 0.00 34 1018.7
20260509172104 18 113 0.0 4.8 0.00 0.00 0.00 35 1018.7
20260509171604 18 165 0.0 0.0 0.00 0.00 0.00 37 1018.8
20260509171104 18 173 0.0 0.0 0.00 0.00 0.00 38 1018.7
20260509170603 18 183 0.0 0.0 0.00 0.00 0.00 37 1018.8
20260509170104 17 183 0.0 0.0 0.00 0.00 0.00 38 1018.9